Year,Month,Day,Hour,Minute,Value (Times are PST for temperature in C)
2009,07,27,00,00,14.70
2009,07,27,00,01,14.70
2009,07,27,00,02,14.70
2009,07,27,00,03,14.70
2009,07,27,00,04,14.70
2009,07,27,00,05,14.70
2009,07,27,00,06,14.80
2009,07,27,00,07,14.80
2009,07,27,00,08,14.80
2009,07,27,00,09,14.80
2009,07,27,00,10,14.90
2009,07,27,00,11,14.90
2009,07,27,00,12,14.90
2009,07,27,00,13,14.90
2009,07,27,00,14,14.90
2009,07,27,00,15,14.90
2009,07,27,00,16,14.90
2009,07,27,00,17,14.90
2009,07,27,00,18,14.80
2009,07,27,00,19,14.80
2009,07,27,00,20,14.80
2009,07,27,00,21,14.80
2009,07,27,00,22,14.80
2009,07,27,00,23,14.80
2009,07,27,00,24,14.80
2009,07,27,00,25,14.80
2009,07,27,00,26,14.80
2009,07,27,00,27,14.80
2009,07,27,00,28,14.80
2009,07,27,00,29,14.70
2009,07,27,00,30,14.70
2009,07,27,00,31,14.70
2009,07,27,00,32,14.70
2009,07,27,00,33,14.70
2009,07,27,00,34,14.70
2009,07,27,00,35,14.70
2009,07,27,00,36,14.70
2009,07,27,00,37,14.70
2009,07,27,00,38,14.70
2009,07,27,00,39,14.70
2009,07,27,00,40,14.60
2009,07,27,00,41,14.60
2009,07,27,00,42,14.60
2009,07,27,00,43,14.60
2009,07,27,00,44,14.60
2009,07,27,00,45,14.60
2009,07,27,00,46,14.60
2009,07,27,00,47,14.60
2009,07,27,00,48,14.60
2009,07,27,00,49,14.50
2009,07,27,00,50,14.50
2009,07,27,00,51,14.50
2009,07,27,00,52,14.40
2009,07,27,00,53,14.40
2009,07,27,00,54,14.40
2009,07,27,00,55,14.40
2009,07,27,00,56,14.40
2009,07,27,00,57,14.40
2009,07,27,00,58,14.40
2009,07,27,00,59,14.40
2009,07,27,01,00,14.40
2009,07,27,01,01,14.40
2009,07,27,01,02,14.40
2009,07,27,01,03,14.40
2009,07,27,01,04,14.40
2009,07,27,01,05,14.40
2009,07,27,01,06,14.40
2009,07,27,01,07,14.40
2009,07,27,01,08,14.40
2009,07,27,01,09,14.40
2009,07,27,01,10,14.40
2009,07,27,01,11,14.40
2009,07,27,01,12,14.40
2009,07,27,01,13,14.40
2009,07,27,01,14,14.40
2009,07,27,01,15,14.40
2009,07,27,01,16,14.40
2009,07,27,01,17,14.40
2009,07,27,01,18,14.50
2009,07,27,01,19,14.50
2009,07,27,01,20,14.50
2009,07,27,01,21,14.60
2009,07,27,01,22,14.60
2009,07,27,01,23,14.60
2009,07,27,01,24,14.60
2009,07,27,01,25,14.60
2009,07,27,01,26,14.60
2009,07,27,01,27,14.70
2009,07,27,01,28,14.70
2009,07,27,01,29,14.70
2009,07,27,01,30,14.70
2009,07,27,01,31,14.80
2009,07,27,01,32,14.80
2009,07,27,01,33,14.80
2009,07,27,01,34,14.80
2009,07,27,01,35,14.80
2009,07,27,01,36,14.80
2009,07,27,01,37,14.80
2009,07,27,01,38,14.80
2009,07,27,01,39,14.80
2009,07,27,01,40,14.80
2009,07,27,01,41,14.80
2009,07,27,01,42,14.80
2009,07,27,01,43,14.80
2009,07,27,01,44,14.80
2009,07,27,01,45,14.80
2009,07,27,01,46,14.80
2009,07,27,01,47,14.80
2009,07,27,01,48,14.80
2009,07,27,01,49,14.80
2009,07,27,01,50,14.80
2009,07,27,01,51,14.70
2009,07,27,01,52,14.70
2009,07,27,01,53,14.70
2009,07,27,01,54,14.70
2009,07,27,01,55,14.70
2009,07,27,01,56,14.70
2009,07,27,01,57,14.60
2009,07,27,01,58,14.60
2009,07,27,01,59,14.60
2009,07,27,02,00,14.60
2009,07,27,02,01,14.60
2009,07,27,02,02,14.60
2009,07,27,02,03,14.60
2009,07,27,02,04,14.50
2009,07,27,02,05,14.60
2009,07,27,02,06,14.60
2009,07,27,02,07,14.60
2009,07,27,02,08,14.60
2009,07,27,02,09,14.60
2009,07,27,02,10,14.60
2009,07,27,02,11,14.60
2009,07,27,02,12,14.60
2009,07,27,02,13,14.60
2009,07,27,02,14,14.60
2009,07,27,02,15,14.60
2009,07,27,02,16,14.60
2009,07,27,02,17,14.70
2009,07,27,02,18,14.60
2009,07,27,02,19,14.60
2009,07,27,02,20,14.60
2009,07,27,02,21,14.60
2009,07,27,02,22,14.60
2009,07,27,02,23,14.60
2009,07,27,02,24,14.60
2009,07,27,02,25,14.50
2009,07,27,02,26,14.50
2009,07,27,02,27,14.50
2009,07,27,02,28,14.40
2009,07,27,02,29,14.40
2009,07,27,02,30,14.40
2009,07,27,02,31,14.40
2009,07,27,02,32,14.40
2009,07,27,02,33,14.40
2009,07,27,02,34,14.30
2009,07,27,02,35,14.30
2009,07,27,02,36,14.30
2009,07,27,02,37,14.30
2009,07,27,02,38,14.30
2009,07,27,02,39,14.30
2009,07,27,02,40,14.30
2009,07,27,02,41,14.30
2009,07,27,02,42,14.30
2009,07,27,02,43,14.20
2009,07,27,02,44,14.20
2009,07,27,02,45,14.20
2009,07,27,02,46,14.20
2009,07,27,02,47,14.20
2009,07,27,02,48,14.20
2009,07,27,02,49,14.10
2009,07,27,02,50,14.10
2009,07,27,02,51,14.10
2009,07,27,02,52,14.10
2009,07,27,02,53,14.10
2009,07,27,02,54,14.10
2009,07,27,02,55,14.00
2009,07,27,02,56,14.00
2009,07,27,02,57,14.00
2009,07,27,02,58,14.00
2009,07,27,02,59,13.90
2009,07,27,03,00,13.90
2009,07,27,03,01,13.90
2009,07,27,03,02,13.90
2009,07,27,03,03,13.80
2009,07,27,03,04,13.80
2009,07,27,03,05,13.80
2009,07,27,03,06,13.80
2009,07,27,03,07,13.80
2009,07,27,03,08,13.80
2009,07,27,03,09,13.80
2009,07,27,03,10,13.80
2009,07,27,03,11,13.70
2009,07,27,03,12,13.70
2009,07,27,03,13,13.70
2009,07,27,03,14,13.70
2009,07,27,03,15,13.70
2009,07,27,03,16,13.70
2009,07,27,03,17,13.70
2009,07,27,03,18,13.60
2009,07,27,03,19,13.60
2009,07,27,03,20,13.60
2009,07,27,03,21,13.50
2009,07,27,03,22,13.50
2009,07,27,03,23,13.40
2009,07,27,03,24,13.40
2009,07,27,03,25,13.40
2009,07,27,03,26,13.40
2009,07,27,03,27,13.40
2009,07,27,03,28,13.40
2009,07,27,03,29,13.40
2009,07,27,03,30,13.40
2009,07,27,03,31,13.30
2009,07,27,03,32,13.30
2009,07,27,03,33,13.30
2009,07,27,03,34,13.30
2009,07,27,03,35,13.30
2009,07,27,03,36,13.30
2009,07,27,03,37,13.30
2009,07,27,03,38,13.30
2009,07,27,03,39,13.30
2009,07,27,03,40,13.30
2009,07,27,03,41,13.30
2009,07,27,03,42,13.30
2009,07,27,03,43,13.30
2009,07,27,03,44,13.30
2009,07,27,03,45,13.30
2009,07,27,03,46,13.30
2009,07,27,03,47,13.30
2009,07,27,03,48,13.30
2009,07,27,03,49,13.30
2009,07,27,03,50,13.30
2009,07,27,03,51,13.30
2009,07,27,03,52,13.30
2009,07,27,03,53,13.30
2009,07,27,03,54,13.40
2009,07,27,03,55,13.40
2009,07,27,03,56,13.40
2009,07,27,03,57,13.40
2009,07,27,03,58,13.40
2009,07,27,03,59,13.40
2009,07,27,04,00,13.40
2009,07,27,04,01,13.40
2009,07,27,04,02,13.40
2009,07,27,04,03,13.40
2009,07,27,04,09,13.50
2009,07,27,04,10,13.60
2009,07,27,04,11,13.60
2009,07,27,04,12,13.60
2009,07,27,04,13,13.60
2009,07,27,04,14,13.60
2009,07,27,04,15,13.60
2009,07,27,04,16,13.60
2009,07,27,04,17,13.60
2009,07,27,04,18,13.60
2009,07,27,04,19,13.60
2009,07,27,04,20,13.60
2009,07,27,04,21,13.60
2009,07,27,04,22,13.60
2009,07,27,04,23,13.60
2009,07,27,04,24,13.70
2009,07,27,04,25,13.70
2009,07,27,04,26,13.70
2009,07,27,04,27,13.70
2009,07,27,04,28,13.70
2009,07,27,04,29,13.70
2009,07,27,04,30,13.70
2009,07,27,04,31,13.70
2009,07,27,04,32,13.70
2009,07,27,04,33,13.80
2009,07,27,04,34,13.80
2009,07,27,04,35,13.80
2009,07,27,04,36,13.80
2009,07,27,04,37,13.80
2009,07,27,04,38,13.80
2009,07,27,04,39,13.80
2009,07,27,04,40,13.80
2009,07,27,04,41,13.80
2009,07,27,04,42,13.80
2009,07,27,04,43,13.80
2009,07,27,04,44,13.80
2009,07,27,04,45,13.80
2009,07,27,04,46,13.80
2009,07,27,04,47,13.80
2009,07,27,04,48,13.80
2009,07,27,04,49,13.80
2009,07,27,04,50,13.80
2009,07,27,04,51,13.80
2009,07,27,04,52,13.80
2009,07,27,04,53,13.80
2009,07,27,04,54,13.80
2009,07,27,04,55,13.80
2009,07,27,04,56,13.80
2009,07,27,04,57,13.80
2009,07,27,04,58,13.80
2009,07,27,04,59,13.80
2009,07,27,05,00,13.80
2009,07,27,05,01,13.80
2009,07,27,05,02,13.80
2009,07,27,05,03,13.80
2009,07,27,05,04,13.80
2009,07,27,05,05,13.80
2009,07,27,05,06,13.80
2009,07,27,05,07,13.80
2009,07,27,05,08,13.80
2009,07,27,05,09,13.80
2009,07,27,05,10,13.80
2009,07,27,05,11,13.80
2009,07,27,05,12,13.80
2009,07,27,05,13,13.80
2009,07,27,05,14,13.80
2009,07,27,05,15,13.90
2009,07,27,05,16,13.90
2009,07,27,05,17,13.90
2009,07,27,05,18,13.90
2009,07,27,05,19,13.90
2009,07,27,05,20,13.90
2009,07,27,05,21,13.90
2009,07,27,05,22,13.90
2009,07,27,05,23,13.90
2009,07,27,05,24,13.90
2009,07,27,05,25,14.00
2009,07,27,05,26,14.00
2009,07,27,05,27,14.00
2009,07,27,05,28,14.00
2009,07,27,05,29,14.10
2009,07,27,05,30,14.10
2009,07,27,05,31,14.10
2009,07,27,05,32,14.10
2009,07,27,05,33,14.10
2009,07,27,05,34,14.20
2009,07,27,05,35,14.20
2009,07,27,05,36,14.20
2009,07,27,05,37,14.20
2009,07,27,05,38,14.20
2009,07,27,05,39,14.20
2009,07,27,05,40,14.20
2009,07,27,05,41,14.20
2009,07,27,05,42,14.20
2009,07,27,05,43,14.30
2009,07,27,05,44,14.30
2009,07,27,05,45,14.30
2009,07,27,05,46,14.30
2009,07,27,05,47,14.30
2009,07,27,05,48,14.40
2009,07,27,05,49,14.40
2009,07,27,05,50,14.40
2009,07,27,05,51,14.50
2009,07,27,05,52,14.50
2009,07,27,05,53,14.60
2009,07,27,05,54,14.60
2009,07,27,05,55,14.70
2009,07,27,05,56,14.70
2009,07,27,05,57,14.70
2009,07,27,05,58,14.70
2009,07,27,05,59,14.80
2009,07,27,06,00,14.80
2009,07,27,06,01,14.80
2009,07,27,06,02,14.80
2009,07,27,06,03,14.90
2009,07,27,06,04,14.90
2009,07,27,06,05,15.00
2009,07,27,06,06,15.00
2009,07,27,06,07,15.00
2009,07,27,06,08,15.00
2009,07,27,06,09,15.00
2009,07,27,06,10,15.00
2009,07,27,06,11,15.00
2009,07,27,06,12,15.00
2009,07,27,06,13,15.00
2009,07,27,06,14,15.00
2009,07,27,06,15,15.00
2009,07,27,06,16,15.10
2009,07,27,06,17,15.20
2009,07,27,06,18,15.20
2009,07,27,06,19,15.30
2009,07,27,06,20,15.30
2009,07,27,06,21,15.40
2009,07,27,06,22,15.40
2009,07,27,06,23,15.50
2009,07,27,06,24,15.50
2009,07,27,06,25,15.60
2009,07,27,06,26,15.60
2009,07,27,06,27,15.60
2009,07,27,06,28,15.70
2009,07,27,06,29,15.70
2009,07,27,06,30,15.80
2009,07,27,06,31,15.80
2009,07,27,06,32,15.80
2009,07,27,06,33,15.90
2009,07,27,06,34,15.90
2009,07,27,06,35,16.00
2009,07,27,06,36,16.10
2009,07,27,06,37,16.10
2009,07,27,06,38,16.20
2009,07,27,06,39,16.20
2009,07,27,06,40,16.30
2009,07,27,06,41,16.30
2009,07,27,06,42,16.40
2009,07,27,06,43,16.50
2009,07,27,06,44,16.60
2009,07,27,06,45,16.70
2009,07,27,06,46,16.80
2009,07,27,06,47,16.90
2009,07,27,06,48,16.90
2009,07,27,06,49,17.00
2009,07,27,06,50,17.10
2009,07,27,06,51,17.20
2009,07,27,06,52,17.30
2009,07,27,06,53,17.30
2009,07,27,06,54,17.30
2009,07,27,06,55,17.30
2009,07,27,06,56,17.30
2009,07,27,06,57,17.20
2009,07,27,06,58,17.20
2009,07,27,06,59,17.10
2009,07,27,07,00,17.00
2009,07,27,07,01,16.90
2009,07,27,07,02,16.90
2009,07,27,07,03,16.90
2009,07,27,07,04,16.80
2009,07,27,07,05,16.80
2009,07,27,07,06,16.80
2009,07,27,07,07,16.80
2009,07,27,07,08,16.90
2009,07,27,07,09,16.90
2009,07,27,07,10,16.90
2009,07,27,07,11,17.00
2009,07,27,07,12,17.00
2009,07,27,07,13,17.10
2009,07,27,07,14,17.10
2009,07,27,07,15,17.20
2009,07,27,07,16,17.20
2009,07,27,07,17,17.20
2009,07,27,07,18,17.20
2009,07,27,07,19,17.20
2009,07,27,07,20,17.20
2009,07,27,07,21,17.20
2009,07,27,07,22,17.20
2009,07,27,07,23,17.20
2009,07,27,07,24,17.20
2009,07,27,07,25,17.20
2009,07,27,07,26,17.30
2009,07,27,07,27,17.30
2009,07,27,07,28,17.30
2009,07,27,07,29,17.30
2009,07,27,07,30,17.40
2009,07,27,07,31,17.40
2009,07,27,07,32,17.50
2009,07,27,07,33,17.60
2009,07,27,07,34,17.60
2009,07,27,07,35,17.70
2009,07,27,07,36,17.80
2009,07,27,07,37,17.90
2009,07,27,07,38,18.00
2009,07,27,07,39,18.00
2009,07,27,07,40,18.20
2009,07,27,07,41,18.20
2009,07,27,07,42,18.30
2009,07,27,07,43,18.40
2009,07,27,07,44,18.50
2009,07,27,07,45,18.60
2009,07,27,07,46,18.70
2009,07,27,07,47,18.70
2009,07,27,07,48,18.80
2009,07,27,07,49,18.90
2009,07,27,07,50,18.90
2009,07,27,07,51,19.00
2009,07,27,07,52,19.10
2009,07,27,07,53,19.10
2009,07,27,07,54,19.20
2009,07,27,07,55,19.30
2009,07,27,07,56,19.40
2009,07,27,07,57,19.40
2009,07,27,07,58,19.50
2009,07,27,07,59,19.50
2009,07,27,08,00,19.60
2009,07,27,08,01,19.60
2009,07,27,08,02,19.60
2009,07,27,08,03,19.60
2009,07,27,08,04,19.70
2009,07,27,08,05,19.60
2009,07,27,08,06,19.60
2009,07,27,08,07,19.70
2009,07,27,08,08,19.70
2009,07,27,08,09,19.70
2009,07,27,08,10,19.60
2009,07,27,08,11,19.60
2009,07,27,08,12,19.50
2009,07,27,08,13,19.50
2009,07,27,08,14,19.50
2009,07,27,08,15,19.50
2009,07,27,08,16,19.50
2009,07,27,08,17,19.50
2009,07,27,08,18,19.60
2009,07,27,08,19,19.50
2009,07,27,08,20,19.50
2009,07,27,08,21,19.40
2009,07,27,08,22,19.40
2009,07,27,08,23,19.40
2009,07,27,08,24,19.50
2009,07,27,08,25,19.60
2009,07,27,08,26,19.70
2009,07,27,08,27,19.80
2009,07,27,08,28,19.80
2009,07,27,08,29,19.90
2009,07,27,08,30,20.00
2009,07,27,08,31,20.10
2009,07,27,08,32,20.10
2009,07,27,08,33,20.20
2009,07,27,08,34,20.20
2009,07,27,08,35,20.30
2009,07,27,08,36,20.30
2009,07,27,08,37,20.30
2009,07,27,08,38,20.30
2009,07,27,08,39,20.30
2009,07,27,08,40,20.40
2009,07,27,08,41,20.40
2009,07,27,08,42,20.50
2009,07,27,08,43,20.60
2009,07,27,08,44,20.70
2009,07,27,08,45,20.80
2009,07,27,08,46,20.90
2009,07,27,08,47,20.90
2009,07,27,08,48,21.00
2009,07,27,08,49,21.10
2009,07,27,08,50,21.20
2009,07,27,08,51,21.20
2009,07,27,08,52,21.30
2009,07,27,08,53,21.30
2009,07,27,08,54,21.40
2009,07,27,08,55,21.50
2009,07,27,08,56,21.50
2009,07,27,08,57,21.60
2009,07,27,08,58,21.70
2009,07,27,08,59,21.80
2009,07,27,09,00,21.80
2009,07,27,09,01,21.90
2009,07,27,09,02,22.00
2009,07,27,09,03,22.00
2009,07,27,09,04,22.00
2009,07,27,09,05,22.10
2009,07,27,09,06,22.10
2009,07,27,09,07,22.20
2009,07,27,09,08,22.30
2009,07,27,09,09,22.40
2009,07,27,09,10,22.40
2009,07,27,09,11,22.50
2009,07,27,09,12,22.50
2009,07,27,09,13,22.40
2009,07,27,09,14,22.40
2009,07,27,09,15,22.40
2009,07,27,09,16,22.40
2009,07,27,09,17,22.40
2009,07,27,09,18,22.40
2009,07,27,09,19,22.50
2009,07,27,09,20,22.50
2009,07,27,09,21,22.40
2009,07,27,09,22,22.30
2009,07,27,09,23,22.30
2009,07,27,09,24,22.30
2009,07,27,09,25,22.20
2009,07,27,09,26,22.30
2009,07,27,09,27,22.30
2009,07,27,09,28,22.40
2009,07,27,09,29,22.50
2009,07,27,09,30,22.60
2009,07,27,09,31,22.60
2009,07,27,09,32,22.60
2009,07,27,09,33,22.50
2009,07,27,09,34,22.40
2009,07,27,09,35,22.30
2009,07,27,09,36,22.20
2009,07,27,09,37,22.10
2009,07,27,09,38,22.00
2009,07,27,09,39,21.90
2009,07,27,09,40,21.80
2009,07,27,09,41,21.80
2009,07,27,09,42,21.70
2009,07,27,09,43,21.80
2009,07,27,09,44,21.80
2009,07,27,09,45,21.80
2009,07,27,09,46,21.90
2009,07,27,09,47,21.90
2009,07,27,09,48,21.90
2009,07,27,09,49,22.00
2009,07,27,09,50,22.10
2009,07,27,09,51,22.10
2009,07,27,09,52,22.20
2009,07,27,09,53,22.30
2009,07,27,09,54,22.30
2009,07,27,09,55,22.40
2009,07,27,09,56,22.50
2009,07,27,09,57,22.60
2009,07,27,09,58,22.60
2009,07,27,09,59,22.70
2009,07,27,10,00,22.80
2009,07,27,10,01,22.80
2009,07,27,10,02,22.90
2009,07,27,10,03,23.10
2009,07,27,10,04,23.20
2009,07,27,10,05,23.40
2009,07,27,10,06,23.50
2009,07,27,10,07,23.70
2009,07,27,10,08,23.90
2009,07,27,10,09,24.10
2009,07,27,10,10,24.20
2009,07,27,10,11,24.30
2009,07,27,10,12,24.30
2009,07,27,10,13,24.30
2009,07,27,10,14,24.20
2009,07,27,10,15,24.10
2009,07,27,10,16,24.10
2009,07,27,10,17,24.00
2009,07,27,10,18,23.90
2009,07,27,10,19,23.80
2009,07,27,10,20,23.80
2009,07,27,10,21,23.90
2009,07,27,10,22,23.90
2009,07,27,10,23,23.90
2009,07,27,10,24,23.90
2009,07,27,10,25,23.90
2009,07,27,10,26,23.90
2009,07,27,10,27,23.90
2009,07,27,10,28,23.80
2009,07,27,10,29,23.80
2009,07,27,10,30,23.80
2009,07,27,10,31,23.90
2009,07,27,10,32,23.90
2009,07,27,10,33,23.90
2009,07,27,10,34,24.00
2009,07,27,10,35,24.10
2009,07,27,10,36,24.20
2009,07,27,10,37,24.20
2009,07,27,10,38,24.30
2009,07,27,10,39,24.30
2009,07,27,10,40,24.40
2009,07,27,10,41,24.50
2009,07,27,10,42,24.60
2009,07,27,10,43,24.70
2009,07,27,10,44,24.80
2009,07,27,10,45,24.90
2009,07,27,10,46,25.00
2009,07,27,10,47,25.10
2009,07,27,10,48,25.20
2009,07,27,10,49,25.30
2009,07,27,10,50,25.50
2009,07,27,10,51,25.60
2009,07,27,10,52,25.60
2009,07,27,10,53,25.70
2009,07,27,10,54,25.80
2009,07,27,10,55,25.80
2009,07,27,10,56,25.90
2009,07,27,10,57,25.90
2009,07,27,10,58,25.90
2009,07,27,10,59,25.90
2009,07,27,11,00,25.90
2009,07,27,11,01,25.90
2009,07,27,11,02,26.00
2009,07,27,11,03,26.10
2009,07,27,11,04,26.20
2009,07,27,11,05,26.30
2009,07,27,11,06,26.30
2009,07,27,11,07,26.20
2009,07,27,11,08,26.10
2009,07,27,11,09,25.90
2009,07,27,11,10,25.70
2009,07,27,11,11,25.50
2009,07,27,11,12,25.30
2009,07,27,11,13,25.20
2009,07,27,11,14,25.10
2009,07,27,11,15,25.00
2009,07,27,11,16,25.00
2009,07,27,11,17,25.10
2009,07,27,11,18,25.10
2009,07,27,11,19,25.20
2009,07,27,11,20,25.10
2009,07,27,11,21,25.00
2009,07,27,11,22,24.90
2009,07,27,11,23,24.90
2009,07,27,11,24,25.00
2009,07,27,11,25,25.00
2009,07,27,11,26,25.10
2009,07,27,11,27,25.20
2009,07,27,11,28,25.30
2009,07,27,11,29,25.50
2009,07,27,11,30,25.50
2009,07,27,11,31,25.60
2009,07,27,11,32,25.60
2009,07,27,11,33,25.60
2009,07,27,11,34,25.50
2009,07,27,11,35,25.50
2009,07,27,11,36,25.50
2009,07,27,11,37,25.50
2009,07,27,11,38,25.40
2009,07,27,11,39,25.30
2009,07,27,11,40,25.20
2009,07,27,11,41,25.10
2009,07,27,11,42,25.10
2009,07,27,11,43,25.20
2009,07,27,11,44,25.20
2009,07,27,11,45,25.10
2009,07,27,11,46,25.20
2009,07,27,11,47,25.20
2009,07,27,11,48,25.30
2009,07,27,11,49,25.40
2009,07,27,11,50,25.40
2009,07,27,11,51,25.50
2009,07,27,11,52,25.60
2009,07,27,11,53,25.60
2009,07,27,11,54,25.60
2009,07,27,11,55,25.70
2009,07,27,11,56,25.80
2009,07,27,11,57,25.80
2009,07,27,11,58,25.80
2009,07,27,11,59,25.80
2009,07,27,12,00,25.70
2009,07,27,12,01,25.70
2009,07,27,12,02,25.80
2009,07,27,12,03,25.90
2009,07,27,12,04,25.90
2009,07,27,12,05,26.00
2009,07,27,12,06,26.10
2009,07,27,12,07,26.30
2009,07,27,12,08,26.30
2009,07,27,12,09,26.20
2009,07,27,12,10,26.20
2009,07,27,12,11,26.30
2009,07,27,12,12,26.30
2009,07,27,12,13,26.40
2009,07,27,12,14,26.40
2009,07,27,12,15,26.40
2009,07,27,12,16,26.40
2009,07,27,12,17,26.30
2009,07,27,12,18,26.40
2009,07,27,12,19,26.40
2009,07,27,12,20,26.50
2009,07,27,12,21,26.60
2009,07,27,12,22,26.60
2009,07,27,12,23,26.60
2009,07,27,12,24,26.60
2009,07,27,12,25,26.60
2009,07,27,12,26,26.50
2009,07,27,12,27,26.50
2009,07,27,12,28,26.30
2009,07,27,12,29,26.30
2009,07,27,12,30,26.30
2009,07,27,12,31,26.40
2009,07,27,12,32,26.40
2009,07,27,12,33,26.50
2009,07,27,12,34,26.60
2009,07,27,12,35,26.60
2009,07,27,12,36,26.70
2009,07,27,12,37,26.80
2009,07,27,12,38,26.80
2009,07,27,12,39,26.80
2009,07,27,12,40,26.80
2009,07,27,12,41,26.80
2009,07,27,12,42,26.80
2009,07,27,12,43,26.80
2009,07,27,12,44,26.80
2009,07,27,12,45,26.70
2009,07,27,12,46,26.60
2009,07,27,12,47,26.50
2009,07,27,12,48,26.50
2009,07,27,12,49,26.50
2009,07,27,12,50,26.40
2009,07,27,12,51,26.40
2009,07,27,12,52,26.40
2009,07,27,12,53,26.40
2009,07,27,12,54,26.40
2009,07,27,12,55,26.40
2009,07,27,12,56,26.30
2009,07,27,12,57,26.20
2009,07,27,12,58,26.00
2009,07,27,12,59,25.90
2009,07,27,13,00,25.90
2009,07,27,13,01,25.90
2009,07,27,13,02,25.90
2009,07,27,13,03,25.90
2009,07,27,13,04,25.90
2009,07,27,13,05,25.90
2009,07,27,13,06,25.90
2009,07,27,13,07,25.90
2009,07,27,13,08,25.90
2009,07,27,13,09,25.90
2009,07,27,13,10,25.90
2009,07,27,13,11,26.00
2009,07,27,13,12,26.10
2009,07,27,13,13,26.20
2009,07,27,13,14,26.30
2009,07,27,13,15,26.30
2009,07,27,13,16,26.30
2009,07,27,13,17,26.30
2009,07,27,13,18,26.20
2009,07,27,13,19,26.20
2009,07,27,13,20,26.10
2009,07,27,13,21,26.20
2009,07,27,13,22,26.20
2009,07,27,13,23,26.30
2009,07,27,13,24,26.30
2009,07,27,13,25,26.40
2009,07,27,13,26,26.50
2009,07,27,13,27,26.60
2009,07,27,13,28,26.70
2009,07,27,13,29,26.70
2009,07,27,13,30,26.80
2009,07,27,13,31,26.90
2009,07,27,13,32,27.00
2009,07,27,13,33,27.10
2009,07,27,13,34,27.10
2009,07,27,13,35,27.10
2009,07,27,13,36,27.10
2009,07,27,13,37,27.20
2009,07,27,13,38,27.30
2009,07,27,13,39,27.50
2009,07,27,13,40,27.50
2009,07,27,13,41,27.60
2009,07,27,13,42,27.60
2009,07,27,13,43,27.60
2009,07,27,13,44,27.60
2009,07,27,13,45,27.60
2009,07,27,13,46,27.60
2009,07,27,13,47,27.50
2009,07,27,13,48,27.50
2009,07,27,13,49,27.50
2009,07,27,13,50,27.60
2009,07,27,13,51,27.70
2009,07,27,13,52,27.80
2009,07,27,13,53,27.80
2009,07,27,13,54,27.80
2009,07,27,13,55,27.90
2009,07,27,13,56,28.00
2009,07,27,13,57,28.10
2009,07,27,13,58,28.20
2009,07,27,13,59,28.20
2009,07,27,14,00,28.10
2009,07,27,14,01,28.10
2009,07,27,14,02,28.10
2009,07,27,14,03,28.00
2009,07,27,14,04,28.00
2009,07,27,14,05,28.10
2009,07,27,14,06,28.10
2009,07,27,14,07,28.20
2009,07,27,14,08,28.30
2009,07,27,14,09,28.30
2009,07,27,14,10,28.40
2009,07,27,14,11,28.40
2009,07,27,14,12,28.40
2009,07,27,14,13,28.40
2009,07,27,14,14,28.40
2009,07,27,14,15,28.50
2009,07,27,14,16,28.60
2009,07,27,14,17,28.50
2009,07,27,14,18,28.50
2009,07,27,14,19,28.50
2009,07,27,14,20,28.40
2009,07,27,14,21,28.50
2009,07,27,14,22,28.50
2009,07,27,14,23,28.40
2009,07,27,14,24,28.40
2009,07,27,14,25,28.30
2009,07,27,14,26,28.30
2009,07,27,14,27,28.30
2009,07,27,14,28,28.30
2009,07,27,14,29,28.20
2009,07,27,14,30,28.20
2009,07,27,14,31,28.20
2009,07,27,14,32,28.20
2009,07,27,14,33,28.20
2009,07,27,14,34,28.20
2009,07,27,14,35,28.30
2009,07,27,14,36,28.20
2009,07,27,14,37,28.30
2009,07,27,14,38,28.30
2009,07,27,14,39,28.40
2009,07,27,14,40,28.40
2009,07,27,14,41,28.30
2009,07,27,14,42,28.30
2009,07,27,14,43,28.30
2009,07,27,14,44,28.20
2009,07,27,14,45,28.20
2009,07,27,14,46,28.20
2009,07,27,14,47,28.20
2009,07,27,14,48,28.30
2009,07,27,14,49,28.40
2009,07,27,14,50,28.50
2009,07,27,14,51,28.50
2009,07,27,14,52,28.40
2009,07,27,14,53,28.40
2009,07,27,14,54,28.40
2009,07,27,14,55,28.30
2009,07,27,14,56,28.30
2009,07,27,14,57,28.20
2009,07,27,14,58,28.10
2009,07,27,14,59,28.20
2009,07,27,15,00,28.20
2009,07,27,15,01,28.20
2009,07,27,15,02,28.20
2009,07,27,15,03,28.30
2009,07,27,15,04,28.30
2009,07,27,15,05,28.30
2009,07,27,15,06,28.30
2009,07,27,15,07,28.30
2009,07,27,15,08,28.30
2009,07,27,15,09,28.30
2009,07,27,15,10,28.30
2009,07,27,15,11,28.40
2009,07,27,15,12,28.50
2009,07,27,15,13,28.60
2009,07,27,15,14,28.70
2009,07,27,15,15,28.70
2009,07,27,15,16,28.70
2009,07,27,15,17,28.70
2009,07,27,15,18,28.70
2009,07,27,15,19,28.70
2009,07,27,15,20,28.60
2009,07,27,15,21,28.60
2009,07,27,15,22,28.50
2009,07,27,15,23,28.50
2009,07,27,15,24,28.40
2009,07,27,15,25,28.30
2009,07,27,15,26,28.30
2009,07,27,15,27,28.20
2009,07,27,15,28,28.20
2009,07,27,15,29,28.20
2009,07,27,15,30,28.20
2009,07,27,15,31,28.20
2009,07,27,15,32,28.20
2009,07,27,15,33,28.20
2009,07,27,15,34,28.20
2009,07,27,15,35,28.20
2009,07,27,15,36,28.20
2009,07,27,15,37,28.20
2009,07,27,15,38,28.20
2009,07,27,15,39,28.20
2009,07,27,15,40,28.20
2009,07,27,15,41,28.20
2009,07,27,15,42,28.20
2009,07,27,15,43,28.20
2009,07,27,15,44,28.20
2009,07,27,15,45,28.20
2009,07,27,15,46,28.30
2009,07,27,15,47,28.30
2009,07,27,15,48,28.30
2009,07,27,15,49,28.30
2009,07,27,15,50,28.30
2009,07,27,15,51,28.40
2009,07,27,15,52,28.50
2009,07,27,15,53,28.50
2009,07,27,15,54,28.60
2009,07,27,15,55,28.60
2009,07,27,15,56,28.60
2009,07,27,15,57,28.60
2009,07,27,15,58,28.60
2009,07,27,15,59,28.60
2009,07,27,16,00,28.70
2009,07,27,16,01,28.70
2009,07,27,16,02,28.70
2009,07,27,16,03,28.70
2009,07,27,16,04,28.80
2009,07,27,16,05,28.80
2009,07,27,16,06,28.90
2009,07,27,16,07,28.90
2009,07,27,16,08,28.80
2009,07,27,16,09,28.80
2009,07,27,16,10,28.90
2009,07,27,16,11,28.90
2009,07,27,16,12,28.90
2009,07,27,16,13,28.90
2009,07,27,16,14,28.90
2009,07,27,16,15,28.90
2009,07,27,16,16,28.90
2009,07,27,16,17,28.90
2009,07,27,16,18,29.00
2009,07,27,16,19,29.00
2009,07,27,16,20,29.10
2009,07,27,16,21,29.10
2009,07,27,16,22,29.10
2009,07,27,16,23,29.10
2009,07,27,16,24,29.20
2009,07,27,16,25,29.30
2009,07,27,16,26,29.30
2009,07,27,16,27,29.30
2009,07,27,16,28,29.30
2009,07,27,16,29,29.30
2009,07,27,16,30,29.30
2009,07,27,16,31,29.30
2009,07,27,16,32,29.30
2009,07,27,16,33,29.40
2009,07,27,16,34,29.40
2009,07,27,16,35,29.40
2009,07,27,16,36,29.50
2009,07,27,16,37,29.50
2009,07,27,16,38,29.60
2009,07,27,16,39,29.70
2009,07,27,16,40,29.80
2009,07,27,16,41,29.80
2009,07,27,16,42,29.90
2009,07,27,16,43,30.00
2009,07,27,16,44,30.10
2009,07,27,16,45,30.20
2009,07,27,16,46,30.20
2009,07,27,16,47,30.30
2009,07,27,16,48,30.40
2009,07,27,16,49,30.40
2009,07,27,16,50,30.50
2009,07,27,16,51,30.60
2009,07,27,16,52,30.60
2009,07,27,16,53,30.70
2009,07,27,16,54,30.80
2009,07,27,16,55,30.80
2009,07,27,16,56,30.90
2009,07,27,16,57,30.90
2009,07,27,16,58,30.90
2009,07,27,16,59,30.80
2009,07,27,17,00,30.80
2009,07,27,17,01,30.80
2009,07,27,17,02,30.80
2009,07,27,17,03,30.80
2009,07,27,17,04,30.80
2009,07,27,17,05,30.80
2009,07,27,17,06,30.80
2009,07,27,17,07,30.80
2009,07,27,17,08,30.80
2009,07,27,17,09,30.90
2009,07,27,17,10,30.90
2009,07,27,17,11,31.00
2009,07,27,17,12,31.10
2009,07,27,17,13,31.20
2009,07,27,17,14,31.30
2009,07,27,17,15,31.40
2009,07,27,17,16,31.40
2009,07,27,17,17,31.40
2009,07,27,17,18,31.40
2009,07,27,17,19,31.20
2009,07,27,17,20,31.00
2009,07,27,17,21,30.90
2009,07,27,17,22,30.80
2009,07,27,17,23,30.70
2009,07,27,17,24,30.60